Flag for Norway Weather past 2 weeks in Lierbyen, Norway

43 °F

Passing clouds.

Feels Like: 32 °F
Forecast: 24 / 39 °F
Wind: 35 mph from Northwest

Location: Oslo / Fornebu

Current Time: Dec 1, 2015 at 3:48:42 AM

Latest Report: Dec 1, 2015 at 2:50 AM

Visibility: N/A

Pressure: 29.59 "Hg

Humidity: 53%

Dew point: 27 °F

Location of LierbyenLocation

Historic Weather in Lierbyen — Graph


Lierbyen temperature yesterday

Maximum temperature yesterday: 45 °F (at 4:20 AM)
Minimum temperature yesterday: 37 °F (at 1:20 PM)
Average temperature yesterday: 41 °F

Past Weeks' High & Low Weather Summary

High52 °F (Nov 16, 1:20 AM)100% (Nov 16, 7:50 AM)30.01 "Hg (Nov 16, 7:50 AM)
Low32 °F (Nov 21, 2:20 AM)42% (Nov 27, 9:50 PM)28.65 "Hg (Nov 29, 1:20 PM)
Average44 °F75%29.33 "Hg
* Reported Nov 16 1:20 AM — Dec 1 1:50 AM, Lierbyen, Weather by CustomWeather, © 2015

Note: Actual official high and low records may vary slightly from our data, if they occured in-between our weather recording intervals... More about our weather records


Lierbyen weather history for previous 24 hours

Time TempWeatherWind HumidityBarometerVisibility
1:50 AM
Tue, Dec 1
43 °FPartly cloudy.33 mph53%29.56 "HgN/A
12:50 AM43 °FPartly cloudy.35 mph66%29.50 "HgN/A
11:50 PM
Mon, Nov 30
43 °FPassing clouds.36 mph61%29.45 "HgN/A
11:20 PM43 °FPassing clouds.39 mph57%29.45 "HgN/A
10:50 PM43 °FPassing clouds.38 mph61%29.42 "HgN/A
10:20 PM43 °FPassing clouds.37 mph57%29.39 "HgN/A
9:50 PM41 °FPartly cloudy.35 mph70%29.39 "HgN/A
9:20 PM41 °FPassing clouds.30 mph76%29.36 "HgN/A
8:50 PM39 °FSprinkles. Passing clouds.26 mph81%29.36 "HgN/A
8:20 PM39 °FSprinkles. Passing clouds.31 mph65%29.33 "HgN/A
7:50 PM41 °FPassing clouds.32 mph61%29.33 "HgN/A
7:20 PM39 °FSprinkles. Partly cloudy.29 mph81%29.33 "HgN/A
6:50 PM41 °FSprinkles. Passing clouds.32 mph66%29.30 "HgN/A
6:20 PM39 °FLight rain. Passing clouds.30 mph75%29.30 "HgN/A
5:50 PM43 °FPassing clouds.31 mph49%29.27 "HgN/A
5:20 PM41 °FPassing clouds.25 mph70%29.27 "HgN/A
4:50 PM41 °FPassing clouds.30 mph66%29.27 "HgN/A
4:20 PM43 °FSprinkles. Passing clouds.32 mph66%29.27 "HgN/A
3:50 PM41 °FPartly cloudy.35 mph70%29.24 "HgN/A
3:20 PM41 °FBroken clouds.33 mph70%29.24 "HgN/A
2:50 PM41 °FPartly sunny.33 mph70%29.24 "HgN/A
2:20 PM39 °FSprinkles. Broken clouds.26 mph81%29.24 "HgN/A
1:50 PM41 °FPassing clouds.29 mph76%29.24 "HgN/A
1:20 PM37 °FScattered clouds.24 mph81%29.24 "HgN/A
12:50 PM39 °FScattered clouds.36 mph70%29.24 "HgN/A
12:20 PM41 °FScattered clouds.35 mph70%29.24 "HgN/A
11:50 AM43 °FScattered clouds.40 mph61%29.24 "HgN/A
11:20 AM41 °FScattered clouds.38 mph53%29.24 "HgN/A
10:50 AM43 °FPartly sunny.30 mph53%29.21 "HgN/A
10:20 AM41 °FPassing clouds.26 mph70%29.24 "HgN/A
9:50 AM41 °FSprinkles. Partly sunny.26 mph76%29.24 "HgN/A
9:20 AM41 °FLight rain. Partly sunny.23 mph70%29.24 "HgN/A
7:50 AM41 °FPartly cloudy.31 mph66%29.21 "HgN/A
7:20 AM41 °FPartly cloudy.25 mph66%29.21 "HgN/A
6:50 AM41 °FPassing clouds.24 mph70%29.18 "HgN/A
6:20 AM39 °FSprinkles. Partly cloudy.30 mph81%29.18 "Hg6 mi
5:50 AM41 °FSprinkles. Overcast.24 mph70%29.18 "HgN/A
5:20 AM41 °FLight rain. Passing clouds.39 mph76%29.12 "HgN/A
4:20 AM45 °FPassing clouds.33 mph46%29.09 "HgN/A
3:50 AM43 °FPassing clouds.35 mph57%29.06 "HgN/A
3:20 AM43 °FPartly cloudy.35 mph66%29.00 "HgN/A
Weather by CustomWeather, © 2015

See weather overviewHow to use our weather pages